Starlink 11365

operational
NORAD ID: 62886 Int'l Des: 2025-024 Owner: SPXS Country: US Constellation: starlink
LEOCIRCULAR

About Starlink 11365

Description loading...

Live Position

Loading 3D Globe...

Upcoming Passes

Altitude History

Altitude vs Time

uPlot chart will show altitude changes over time

Two-Line Element Set

1 62886U 25024H 26036.41265972 .00379901 00000-0 28217-2 0 9997
2 62886 43.0001 15.7079 0000880 290.8704 69.2069 15.70916494 58398
Epoch: Feb 5, 2026 • Age: 14 hours

Current Status

Altitude 358.5 km
Velocity 7.70 km/s
Sub-Earth Point 42.40°N, 21.67°W
Launch Date Feb 4, 2025
Age 1 years
Type internet

Technical Details

Classification Payload
Mass 960.00 kg
Dry Mass 910.00 kg
Total Mass 960.00 kg
Length 0.30 m
Diameter 4.10 m
Span 29.00 m
Shape Box + pan
Manufacturer SPXS
Bus Type Starlink V2MD
Phase Status In Orbit
Owner/State SPXS/US

Large Constellations

Loading constellations...